Location: Gollapalle
(16.7263°N, 80.9073°E)
Time: 12:42:15
(UTC+00:00)

Daily predictions for brighter satellites

Satellite Brightness Start Highest point End
(mag) Time Altitude Azimuth Time Altitude Azimuth Time Altitude Azimuth
Cosmos 1980 Rocket 2.7 12:19:12 10° S 12:24:30 42° ESE 12:29:47 10° NE
MOS 1 Rocket 3.7 12:20:35 10° SE 12:24:47 39° ENE 12:29:13 10° N
DELTA 2 R/B (1) 3.8 12:19:16 10° NW 12:24:50 78° SW 12:30:21 10° SE
IRIDIUM 104 4.4 12:19:52 10° N 12:24:59 59° E 12:30:07 10° SSE
USA 238 DEB 3.3 12:21:27 10° SSW 12:27:17 76° ESE 12:33:20 10° NNE
USA 238 3.4 12:21:34 10° SSW 12:27:23 74° ESE 12:33:27 10° NNE
Cosmos 1726 Rocket 3.8 12:24:58 10° S 12:29:26 55° E 12:33:58 10° NNE
Intelsat 5-1 Rocket 2.3 12:27:40 10° NW 12:29:44 24° NNE 12:32:35 10° ENE
IRIDIUM 114 4.3 12:28:54 10° N 12:34:07 77° E 12:39:19 10° S
NOSS 2-3 (C) 4.2 12:30:49 10° SW 12:34:49 46° WNW 12:38:14 10° N
Cosmos 1743 2.1 12:33:20 10° N 12:36:33 72° E 12:39:45 10° S
SAR-Lupe-4 3.5 12:33:19 10° SSE 12:36:52 89° E 12:40:25 10° NNW
ERS-1 4.5 12:33:20 10° SSE 12:38:23 67° ENE 12:43:22 10° N
SKYMED 2 4.1 12:37:45 10° N 12:42:02 64° WNW 12:46:18 10° SSW
CZ-2D R/B 4.5 12:39:01 10° SE 12:42:28 25° ENE 12:45:56 10° NNE
IRIDIUM 103 4.4 12:38:03 10° N 12:43:16 83° W 12:48:28 10° S
SAR-Lupe-1 4.1 12:40:25 10° S 12:43:58 86° W 12:47:33 10° NNW
YAOGAN 1 3.7 12:41:45 10° SE 12:45:02 22° ENE 12:48:18 10° NNE
Cosmos 1570 Rocket 4.0 12:40:58 10° NNW 12:46:17 85° ENE 12:51:32 10° SSE
Aureole 1 Rocket 2.6 12:44:58 10° S 12:48:09 53° E 12:52:00 10° NNE
COSMO-SKYMED 1 2.4 12:44:07 10° N 12:48:14 87° WNW 12:52:20 10° SSW
Cosmos 1602 Rocket 3.5 12:44:33 10° N 12:48:54 88° ENE 12:53:12 10° S
Cosmos 2266 Rocket 3.9 12:46:42 10° N 12:52:46 80° E 12:58:46 10° S
Cosmos 1937 Rocket 4.2 12:51:11 10° SSE 12:55:51 33° E 12:59:17 16° NE
ARIANE 5 R/B 3.3 12:53:20 10° S 12:58:12 54° WSW 13:03:06 10° NNW
SPOT 1/Viking Rocket 3.5 12:55:28 10° SSE 13:00:33 61° ENE 13:05:40 10° N
NATO 3D Rocket 4.2 12:58:40 10° W 13:03:09 47° SSW 13:08:12 10° SE
ATLAS 2A CENTAUR R/B 3.8 12:46:45 10° WNW 13:03:37 44° N 13:06:51 22° ENE
Cosmos 372 Rocket 3.9 12:58:37 10° S 13:03:48 84° ESE 13:08:58 10° NNE
Star 48 S/N 10038-3 4.2 13:06:05 10° WSW 13:09:44 73° NNW 13:10:28 41° NE
Cosmos 1953 Rocket 4.2 13:07:48 15° NNE 13:10:59 34° E 13:15:01 10° SSE
Cosmos 773 Rocket 4.2 13:07:41 10° NNW 13:12:54 74° WSW 13:18:08 10° S
VEP-3 3.1 13:09:12 10° WNW 13:14:54 66° SSW 13:23:35 10° ESE
Meteor 1-26 Rocket 4.0 13:11:25 10° S 13:16:58 78° E 13:22:23 10° N
SWIFT 3.8 13:14:15 10° WSW 13:17:05 25° SSW 13:19:25 13° SSE
Cosmos 2058 Rocket 3.1 13:14:34 10° S 13:18:59 79° W 13:23:26 10° N
Cosmos-2242 2.9 13:16:09 10° S 13:20:20 84° W 13:24:12 12° N
ATLAS 5 CENTAUR R/B 1.8 13:18:39 10° SSW 13:20:41 24° SSE 13:20:55 24° SE
Sakura Rocket 4.1 13:18:02 10° WNW 13:21:16 24° NNW 13:22:05 22° N
Cosmos 1825 Rocket 3.6 13:18:59 10° N 13:23:17 77° W 13:27:32 10° S
Delta 202 4.4 13:18:15 10° WSW 13:24:02 61° SSE 13:28:08 28° E
Cosmos 2237 4.3 13:22:39 10° S 13:28:13 57° ESE 13:30:26 35° NE
Palapa B4 Rocket 3.6 13:23:54 10° WSW 13:29:02 46° SSE 13:30:06 37° SE
Atlas Centaur 2 2.9 13:30:13 10° SSW 13:32:39 20° SSE 13:32:39 20° SSE
Ariane H10+ 3.6 13:31:52 10° WSW 13:37:39 25° SSW 13:40:11 16° SSE
SL-24 R/B - RUBIN 2 4.1 13:34:09 10° SSW 13:40:15 87° ESE 13:42:15 42° NNE
Cosmos 1655 Rocket 4.1 13:36:35 10° N 13:42:46 74° W 13:48:56 10° S
COSMOS 2455 2.7 13:37:05 10° SSW 13:43:02 70° ESE 13:44:37 49° NE
SL-16 R/B 2.8 13:39:20 10° S 13:43:40 37° SE 13:43:40 37° SE
Resurs 1-3 4.3 13:42:21 10° S 13:46:31 51° W 13:50:41 10° NNW
USA 290 4.4 13:48:57 10° NW 13:51:44 27° WSW 13:54:31 10° SSW
Hubble Space Telescope 2.5 13:48:43 10° WNW 13:50:53 22° NW 13:50:53 22° NW
SEDSat Delta rocket 3.9 13:48:42 10° SW 13:54:48 63° SSE 13:55:34 59° ESE
Cosmos 2297 Rocket 3.1 13:52:40 10° NNW 13:58:03 47° WSW 14:03:26 10° S
Skynet4D Del rocket 4.1 13:58:50 10° W 14:05:02 62° NNW 14:05:39 59° N
Cosmos 2278 4.4 14:01:42 10° S 14:05:27 40° SSE 14:05:27 40° SSE
Meteor 2-10 4.2 14:07:11 70° NW 14:07:46 78° W 14:13:23 10° S
IUS-18 SRM-1 4.3 14:05:27 10° SSW 14:07:55 33° SSE 14:07:55 33° SSE
Resurs 01 Rocket 4.2 14:10:03 10° S 14:10:13 11° S 14:10:13 11° S
CZ-4C R/B 3.1 14:10:10 10° NNW 14:18:35 72° ENE 14:20:05 62° ESE
H-2A R/B 4.0 14:14:50 10° NW 14:55:41 - E 14:15:46 18° NNW
Cosmos 2333 Rocket 3.7 14:25:58 10° SSW 14:28:38 29° SSW 14:28:38 29° SSW
S3M 4.5 14:29:13 10° SSW 14:34:47 57° WSW 14:34:47 57° WSW
Cosmos 2360 Rocket 4.5 14:35:18 10° S 14:36:06 14° S 14:36:06 14° S
USA 59 Rocket 2.6 14:43:07 10° SW 14:45:17 22° SW 14:45:17 22° SW
CZ-3 Stage 3 4.5 22:07:04 39° N 22:08:13 40° NNE 22:33:39 10° E
CZ-3 R/B 3.7 22:16:58 48° NW 22:22:34 59° N 22:31:40 10° E
Atlas Centaur 2 2.7 22:37:42 82° WNW 22:38:08 90° NNE 22:46:24 10° ESE
SL-16 R/B 2.4 22:35:11 10° SSE 22:41:24 88° ESE 22:41:24 88° ESE
SEDSat Delta rocket 3.9 22:49:53 52° SSE 22:49:53 52° SSE 22:53:43 10° SE
Centaur AC-119 3.1 22:49:05 78° SSE 22:49:07 78° SSE 22:54:52 10° ENE
Cosmos 1634 Rocket 4.2 22:47:34 31° N 22:50:41 68° E 22:56:53 10° SSE
Meteor 1-27 4.1 22:52:38 74° SSW 22:52:38 74° SSW 22:57:39 10° S
Cosmos 1782 4.5 22:53:54 27° E 22:53:59 27° E 22:57:01 10° SE
IUS-1 SRM-2 3.0 23:01:31 66° W 23:02:12 79° SSW 23:05:21 10° ESE
Cosmos 1536 Rocket 3.8 22:59:11 10° S 23:02:53 62° S 23:02:53 62° S
FUSE 3.8 23:04:21 76° WSW 23:04:48 89° NNW 23:10:11 10° ENE
Cosmos 2279 Rocket 4.4 23:01:48 10° N 23:07:58 63° E 23:14:08 10° SSE
Cosmos 1777 Rocket 3.8 23:07:17 62° NNW 23:08:09 85° WSW 23:13:19 10° S
FengYun 1-2 T 4.2 23:02:32 10° NNE 23:08:12 89° ESE 23:13:49 10° SSW
UNK 3.9 23:05:31 10° SSE 23:10:03 70° ENE 23:11:55 35° N
IRS-1D 4.0 23:05:45 10° NNE 23:10:44 59° ESE 23:15:50 10° S
Cosmos 1980 Rocket 4.0 23:10:26 10° NNE 23:15:09 28° ENE 23:19:52 10° SE
Cosmos 2228 4.1 23:24:07 28° SW 23:24:07 28° SW 23:26:25 10° SSW
Cosmos 1486 Rocket 4.4 23:22:58 40° W 23:22:58 40° W 23:27:53 10° S
GPS 2-15 Rocket1 4.4 23:28:11 15° SW 23:31:22 34° SSE 23:35:30 10° E
Cosmos 2098 Rocket 3.7 23:26:42 10° N 23:32:32 87° E 23:38:02 10° S
NOAA 12 4.0 23:29:57 10° N 23:35:11 85° WNW 23:40:26 10° SSW
OPS 8737 4.4 23:35:42 42° NNW 23:36:47 86° WSW 23:40:50 10° SSE
SL-24 R/B 4.1 23:32:01 10° NNE 23:36:50 87° E 23:41:01 10° S
Cosmos 1346 Rocket 2.8 23:35:43 10° SSW 23:39:15 46° W 23:40:36 31° NNW
Chandra Rocket (1) 3.6 23:37:53 23° WSW 23:40:29 41° SSW 23:52:46 10° SE
Cosmos 2142 Rocket 4.4 23:37:32 10° N 23:43:45 83° W 23:49:54 10° S
Cosmos 990 Rocket 3.9 23:45:09 11° NNW 23:50:09 69° WSW 23:55:19 10° S
Stardust Del rocket 4.4 23:48:02 10° SW 23:50:43 24° SSE 23:52:47 10° ESE
Nadezhda 4 Rocket 4.2 23:46:55 10° SSW 23:52:58 48° W 23:59:00 10° N
GPS 2-12 Rocket1 3.0 23:50:24 24° W 23:53:06 82° SSW 23:57:38 10° ESE
BREEZE-M DEB (TANK) 4.4 23:48:38 10° WSW 23:54:17 28° WNW 23:56:58 10° N
Cosmos 1484 Rocket 3.7 23:51:27 10° NNE 23:54:40 43° E 23:57:51 10° S
